Location: Chippewa Lake
(41.0698°N, 81.9010°W)
Time: 20:42:01
(UTC+00:00)

CZ-4C R/B - Pass Details

Date: 09 May 2021
Orbit: 609 x 1392 km, 63.4° (Epoch: 16 June)

Event Time Altitude Azimuth Distance (km) Brightness Sun altitude
Rises 03:40:05 0° 323° (NW) 3,904 6.9 -26.7°
Reaches altitude 10° 03:42:36 10° 322° (NW) 3,045 6.0 -27.0°
Maximum altitude 03:50:05 77° 239° (WSW) 1,317 3.0 -27.6°
Enters shadow 03:52:00 57° 169° (S) 1,522 3.1 -27.7°
